Theta_e
312 313 314 315 316 317 318 317 318 317 318 318 319 320 321 322 322 323 323 324 324 323 323 324 325 325 321 311 310 329 332 332 327 324 320 316 312 309 303 304 305 302 305 309 310 311 308
309 310 312 314 315 316 317 317 316 316 317 317 317 318 320 321 321 322 323 323 323 323 323 323 324 325 315 302 319 330 329 326 324 321 318 317 313 312 307 305 303 305 306 305 307 306 306
308 308 309 311 313 315 315 315 315 315 315 316 316 317 318 319 321 322 322 322 323 322 322 323 323 319 310 305 318 320 327 324 324 323 317 317 315 309 308 303 308 306 301 303 303 305 303
307 307 308 309 311 312 313 314 314 314 315 315 316 316 317 318 319 321 321 321 322 322 322 322 322 312 302 316 317 316 322 322 323 324 322 320 318 311 306 306 303 298 298 292 301 304 305
306 307 307 307 308 309 311 312 313 313 313 314 314 315 316 317 318 319 320 320 321 322 321 320 310 305 299 315 311 315 318 315 317 319 320 321 316 308 308 302 297 294 290 291 296 303 302
304 305 305 306 306 307 307 311 312 312 312 313 313 314 315 316 316 317 318 319 319 318 316 314 311 300 304 302 311 314 317 317 312 311 312 310 306 303 303 299 289 292 294 295 294 298 300
305 304 303 304 305 306 306 308 310 312 312 313 313 313 314 315 316 317 315 312 304 301 305 299 299 299 302 306 311 310 314 312 310 306 300 304 297 293 296 300 299 296 296 294 298 300 300
303 303 303 303 304 306 305 306 306 311 312 312 312 313 314 314 315 315 310 304 304 304 296 302 301 302 304 305 300 306 313 303 303 297 301 298 293 298 301 301 298 297 294 294 297 300 299
303 302 302 303 304 305 305 305 305 310 311 311 311 311 312 313 314 310 304 305 311 306 295 298 301 300 300 303 298 301 307 303 298 296 297 294 294 300 298 295 295 295 294 293 294 297 298
303 303 302 302 303 303 304 304 303 307 310 310 310 310 311 312 306 302 300 308 312 309 288 290 295 298 301 301 296 306 307 303 297 294 294 294 298 296 296 294 296 291 297 296 294 292 287
303 302 302 302 303 303 304 304 302 306 308 309 309 310 310 310 301 298 301 309 311 304 275 291 294 304 301 296 296 297 308 302 294 294 294 290 292 293 292 294 296 292 296 295 294 292 291
302 302 302 301 302 302 304 304 305 305 305 306 308 309 310 306 301 301 306 308 305 285 274 287 295 293 293 295 294 296 300 302 300 294 293 293 296 296 295 297 296 297 293 293 291 289 284
303 302 302 302 302 302 303 304 304 305 304 306 308 308 307 305 296 305 307 300 283 277 287 285 288 292 291 291 292 292 293 292 289 286 286 290 291 293 295 291 294 293 289 282 281 281 281
303 303 302 302 302 302 304 304 303 304 304 306 308 308 306 303 303 305 301 287 276 281 283 288 290 291 287 291 290 290 290 288 292 287 284 282 278 290 294 292 289 289 289 282 276 277 278
303 303 302 302 302 302 303 303 303 304 305 307 307 303 301 302 305 304 292 280 279 278 286 287 289 286 286 289 290 290 288 287 290 290 282 281 282 290 293 293 294 288 286 291 284 283 278
303 303 302 302 303 302 303 303 303 304 306 307 298 297 297 304 305 299 286 282 279 290 291 291 284 286 283 286 286 287 287 290 287 292 290 285 280 288 290 293 294 291 293 282 285 273 275
304 303 303 303 302 302 303 303 305 305 306 303 294 287 297 303 302 291 281 281 282 291 293 289 285 286 284 285 286 286 286 288 291 291 291 288 284 283 287 286 286 287 287 287 286 284 279
304 304 304 304 303 302 304 304 306 305 305 300 291 282 298 302 286 285 283 284 289 288 292 292 290 286 286 287 286 286 284 288 293 292 287 289 286 278 282 288 290 291 288 288 282 277 280
304 304 303 303 303 303 304 304 306 306 304 294 285 286 299 297 281 282 285 285 288 287 288 289 287 288 289 287 284 287 287 292 293 292 289 290 283 271 276 283 286 285 287 288 287 284 280
305 305 305 304 304 304 304 305 305 306 304 291 285 277 288 291 287 281 283 280 282 290 288 290 289 289 288 287 288 286 287 291 292 292 295 294 285 280 276 278 284 283 286 288 287 281 281
304 305 306 306 304 304 304 305 305 306 303 291 284 282 285 281 283 284 285 284 282 283 290 290 287 288 287 284 285 285 288 289 290 294 293 290 278 283 283 285 284 283 284 285 284 286 281
303 303 304 305 304 304 305 305 305 305 303 290 284 285 287 284 284 285 285 282 282 284 287 285 285 289 289 285 286 283 288 287 287 290 290 290 281 283 277 284 284 283 284 285 285 286 285
305 305 305 304 304 304 304 304 305 305 301 290 292 294 289 286 280 282 283 285 283 287 288 289 289 288 287 289 290 292 293 292 290 289 287 286 282 278 269 281 280 273 280 283 284 286 285
306 307 305 305 304 304 304 304 305 304 301 293 292 293 287 282 282 282 285 286 285 287 286 290 292 287 289 294 293 291 287 288 289 289 290 282 281 279 270 272 269 280 284 284 284 286 287
305 305 304 305 304 304 304 305 305 305 304 295 293 290 288 284 284 285 286 287 288 290 286 287 288 290 294 291 285 280 278 279 279 283 288 288 282 277 275 266 273 277 281 280 279 278 281
305 305 304 305 304 304 305 305 305 306 305 294 290 293 291 285 284 288 285 287 285 284 283 285 290 292 292 286 280 273 273 274 274 277 285 287 286 277 261 261 262 276 281 284 284 275 278
304 304 305 305 304 305 305 305 305 305 304 293 290 294 291 285 285 288 285 285 288 284 282 283 284 285 288 280 276 272 269 276 270 270 272 270 269 272 260 261 269 279 283 287 272 274 275
301 302 302 304 304 304 304 305 305 305 302 293 288 295 290 283 284 286 285 282 285 284 283 285 284 284 281 278 277 276 270 275 272 277 275 273 269 265 263 261 266 278 281 280 274 273 273
300 300 300 301 302 303 303 303 304 305 303 298 289 293 294 286 285 289 289 290 288 287 285 284 282 281 284 280 279 276 272 270 270 268 281 273 277 273 275 274 275 274 272 272 272 271 271
Wind_Speed
23 27 26 24 25 25 24 21 18 16 15 15 16 15 15 15 17 16 14 13 11 10 9 8 7 7 4 7 9 3 11 9 5 5 6 6 6 4 5 4 4 6 5 6 9 8 5
25 23 26 26 26 26 23 22 20 18 17 16 17 16 16 15 16 17 16 15 13 11 11 9 9 6 2 17 6 8 7 7 5 5 3 4 4 6 3 5 5 3 2 4 4 8 5
25 25 24 25 28 25 24 23 21 20 19 17 17 16 16 16 15 16 16 15 14 13 11 10 9 4 8 12 2 2 11 6 5 7 5 3 1 2 1 0 3 2 4 5 2 4 5
26 26 25 26 26 26 26 25 23 21 20 18 17 18 17 17 15 16 17 16 14 13 12 10 8 2 7 7 14 7 4 4 5 2 3 5 6 5 3 2 4 4 3 2 3 6 7
24 26 25 26 26 22 25 27 26 24 23 20 18 17 17 17 15 14 17 17 14 13 12 9 4 3 7 1 5 9 3 8 3 3 3 3 4 2 2 3 2 1 6 4 6 8 7
27 25 26 27 29 28 21 26 27 25 23 22 21 20 19 18 15 13 15 16 13 9 6 3 1 3 5 3 6 6 6 6 4 5 4 3 4 4 5 7 13 6 5 5 10 2 5
27 24 25 29 27 28 24 29 27 26 25 23 22 23 21 19 17 16 12 6 7 6 9 6 10 6 1 8 4 6 5 6 4 2 8 7 4 15 13 10 12 2 3 8 6 6 14
27 29 27 29 29 28 28 25 31 30 26 23 22 22 22 21 19 17 9 8 4 8 7 12 4 13 3 3 5 6 9 8 8 10 9 4 14 8 4 8 10 11 11 14 9 7 6
28 28 28 25 28 28 30 23 31 28 25 23 22 22 22 20 18 11 11 19 5 10 4 12 9 9 10 5 7 13 13 7 7 10 13 11 5 11 7 9 8 12 16 12 7 4 10
27 29 28 27 30 27 28 22 24 28 25 23 22 23 23 20 12 6 10 10 6 5 5 6 14 7 8 3 6 8 11 10 5 15 6 9 13 7 11 14 11 15 7 7 9 6 6
25 28 28 25 27 27 27 24 19 22 19 22 22 23 25 24 7 14 7 8 9 3 13 18 14 7 12 12 7 9 7 3 10 8 9 13 11 13 12 14 7 10 7 10 9 9 8
24 25 27 26 28 26 26 27 23 24 22 18 23 25 26 19 4 7 10 13 6 11 10 9 14 16 17 16 2 6 8 6 5 4 3 16 4 9 12 14 12 5 1 4 2 1 11
29 26 25 25 27 27 25 25 24 22 22 22 24 26 24 14 16 11 14 9 12 7 10 12 14 24 28 16 17 8 15 15 11 11 15 6 12 3 3 5 6 5 5 4 5 6 5
32 28 25 25 27 27 24 21 20 21 23 24 27 27 22 12 10 12 12 10 18 9 5 3 12 24 22 19 16 12 17 18 18 5 7 12 5 16 7 10 7 8 11 7 8 6 4
34 30 26 26 26 25 23 22 24 23 25 25 26 10 11 11 14 10 11 18 16 6 11 8 17 25 14 18 11 14 20 21 15 16 10 8 9 5 9 7 11 5 8 12 12 10 4
35 30 28 27 27 25 25 24 27 22 31 28 9 10 9 13 15 12 12 13 8 2 7 12 9 13 13 22 14 18 19 17 6 17 4 4 2 8 9 6 10 16 6 3 4 5 12
32 28 31 27 26 27 27 23 24 30 28 23 5 6 5 15 10 11 11 7 4 8 5 17 11 8 7 20 19 20 13 6 16 19 8 4 3 4 9 9 11 4 11 6 3 5 4
24 25 29 27 27 27 29 29 29 30 25 10 4 4 9 13 8 5 12 6 3 8 7 12 5 4 15 23 20 18 16 11 16 17 19 6 4 4 6 4 6 17 18 15 9 8 4
22 25 27 29 27 27 28 27 28 32 30 6 7 3 10 10 9 6 6 6 3 5 7 4 8 7 9 16 10 13 16 15 12 16 16 10 5 3 8 7 3 6 6 8 5 4 17
19 26 32 34 32 30 30 29 28 29 26 6 5 4 5 7 1 6 8 9 6 6 8 9 7 5 13 17 3 14 14 12 10 12 11 16 5 9 10 6 6 5 6 6 8 8 17
6 9 23 32 36 33 32 30 29 29 23 6 1 3 3 15 12 11 5 14 19 7 6 15 9 19 16 10 7 9 11 5 7 12 9 12 7 6 1 6 2 4 6 10 14 17 10
8 11 17 35 38 34 32 31 30 29 21 4 4 4 4 8 9 13 15 10 17 5 12 8 11 22 18 16 15 17 15 9 12 5 13 3 3 3 1 3 5 9 11 7 6 5 10
14 15 33 37 34 33 32 31 29 30 16 3 3 5 1 11 6 6 10 5 22 15 7 5 18 13 15 17 8 12 9 8 9 15 8 8 7 4 5 3 1 9 7 13 12 8 8
32 34 35 33 29 29 30 28 30 30 14 3 2 4 3 5 11 19 9 11 9 16 8 10 22 7 4 18 17 17 13 10 6 4 6 7 6 3 4 5 4 6 3 4 10 11 8
24 27 28 28 28 28 28 28 29 30 19 4 1 4 2 3 8 6 9 13 8 12 3 4 4 4 10 15 11 8 4 5 5 6 4 7 5 3 5 5 5 6 7 4 6 3 8
36 19 21 23 24 25 26 26 27 27 22 4 2 1 4 2 3 5 10 13 8 7 5 2 5 3 4 4 5 6 6 5 5 3 5 5 4 5 4 6 9 7 2 1 3 5 9
35 35 26 23 21 21 21 22 24 25 15 4 2 3 3 4 5 1 4 10 4 4 5 3 2 4 4 3 4 4 3 5 6 10 7 3 2 8 3 3 8 7 8 6 4 4 7
34 33 31 28 19 14 16 19 22 22 12 6 1 5 3 3 5 6 6 3 5 3 9 6 5 3 3 5 4 3 3 5 5 5 8 9 8 5 4 3 9 5 0 4 3 7 6
33 32 27 25 22 17 15 16 14 19 11 7 4 2 6 7 3 2 7 8 4 3 4 3 3 4 5 5 2 4 2 2 5 4 3 3 8 8 10 7 5 8 13 9 7 3 4
Wind_Direction
292 275 269 260 252 242 234 230 224 222 232 246 232 224 220 214 214 212 208 205 198 193 199 204 193 197 122 213 226 339 91 105 112 141 198 194 196 185 191 223 323 251 251 264 269 288 319
280 284 283 267 256 244 239 229 227 226 223 230 235 226 217 212 211 209 205 203 195 185 188 200 198 177 222 231 212 135 113 132 155 158 229 200 202 212 277 207 210 317 336 307 331 312 316
268 271 280 285 262 251 240 232 229 222 223 223 226 227 219 212 205 205 201 199 191 181 185 197 200 168 237 228 154 61 146 175 175 181 179 65 15 172 289 286 318 5 347 341 291 295 286
261 266 264 272 280 259 244 233 230 227 221 217 220 220 215 210 204 200 197 193 188 178 181 189 200 157 240 200 256 299 190 159 181 63 44 113 62 101 47 266 15 49 48 278 196 230 259
258 256 261 265 267 271 263 240 232 229 225 217 215 214 206 205 200 198 193 190 181 176 177 171 133 170 237 209 196 231 212 196 137 58 41 106 87 85 106 112 301 146 253 236 283 233 258
254 250 260 250 260 262 281 258 234 224 220 216 209 207 201 197 194 192 195 186 184 168 159 111 310 102 272 207 138 175 180 155 126 118 102 127 127 179 194 184 222 204 214 234 244 279 270
262 252 259 261 249 251 255 255 261 223 215 209 206 201 196 189 187 184 173 161 169 174 189 186 177 203 339 171 137 176 168 110 92 185 180 184 178 215 210 207 244 317 220 250 257 289 261
254 262 250 252 250 243 239 245 266 215 211 207 201 197 192 189 185 189 163 204 189 145 168 226 252 219 311 184 156 189 151 155 178 199 182 180 225 211 154 175 207 227 235 254 275 268 335
260 253 249 241 251 238 232 238 248 217 202 204 198 194 189 185 183 181 187 196 190 124 147 191 211 198 220 211 211 196 172 154 183 197 187 213 227 184 208 223 213 231 234 242 241 323 293
261 254 247 244 239 237 229 224 237 260 196 201 200 192 187 181 175 160 201 183 186 347 190 176 197 239 180 183 232 170 197 158 200 202 174 217 234 213 209 230 206 243 199 208 221 221 262
266 246 244 240 238 231 232 213 222 227 195 190 201 192 186 176 138 191 148 146 139 85 223 166 173 176 157 179 137 207 156 142 186 179 167 217 171 196 216 226 168 251 186 227 231 246 255
247 249 235 233 239 232 225 214 214 227 198 196 195 196 185 180 164 165 127 125 145 195 221 168 155 170 158 194 211 131 159 115 181 197 240 226 156 174 200 222 201 217 181 239 195 190 237
239 236 231 225 232 224 229 214 209 207 198 190 196 190 184 171 191 152 140 132 195 228 152 151 175 172 176 173 194 166 171 182 181 190 213 218 233 276 178 174 184 167 149 251 233 210 255
241 229 228 219 219 218 218 199 214 199 206 202 180 184 183 180 165 157 162 186 219 187 192 237 163 174 182 153 197 172 171 193 207 196 173 212 226 200 190 194 173 188 193 218 240 219 269
232 209 216 212 214 216 209 205 195 207 183 171 160 161 180 173 168 164 173 207 208 163 146 148 150 176 177 174 147 170 196 201 200 197 170 183 238 196 183 173 148 206 195 233 258 263 288
221 206 206 209 205 208 200 191 192 195 169 149 141 163 181 175 170 174 202 193 152 210 132 153 163 181 167 174 166 184 186 197 209 197 188 179 203 206 202 142 211 207 147 221 197 242 249
202 205 196 199 199 200 186 185 170 168 147 135 100 132 174 173 166 185 206 197 174 146 155 186 174 173 199 166 182 184 190 187 183 185 172 170 124 276 134 199 185 196 223 219 203 191 254
202 207 193 195 190 191 185 181 161 158 157 112 103 136 162 154 178 168 200 167 197 146 211 227 196 126 173 175 182 183 207 196 189 166 198 172 128 205 230 220 186 207 214 211 222 234 241
207 204 197 192 190 186 181 179 164 162 160 124 121 118 163 159 189 160 143 159 195 151 185 226 202 179 164 165 164 188 188 200 177 177 179 168 213 77 341 327 244 209 194 193 211 243 246
232 218 195 195 187 180 175 171 167 164 158 92 119 135 159 179 111 136 154 176 184 223 209 200 257 147 130 161 151 179 174 176 178 174 156 164 171 200 213 205 171 197 182 203 203 228 248
331 186 196 191 179 173 170 167 167 165 156 101 106 164 242 168 191 193 178 175 186 179 198 188 278 171 168 153 150 164 158 144 149 176 164 166 191 194 189 303 113 199 226 222 216 240 233
342 186 184 164 164 166 165 164 165 162 162 86 126 108 305 127 120 176 178 189 183 163 175 184 239 170 166 166 181 167 166 155 167 134 172 177 164 122 29 196 258 275 256 206 227 241 254
28 187 156 155 158 159 160 163 162 162 161 131 116 112 25 156 160 169 193 180 206 180 235 196 214 171 189 193 154 168 124 121 166 166 148 147 125 113 244 242 80 299 219 225 238 213 226
56 104 134 142 149 154 157 161 163 166 165 129 125 103 96 169 178 203 180 174 203 181 159 213 193 143 194 107 89 69 56 61 93 156 129 126 109 126 191 58 241 240 71 205 212 241 260
82 99 122 139 147 153 158 163 165 172 181 67 72 108 110 160 180 136 168 176 164 176 74 349 68 127 153 99 100 73 4 33 4 24 118 128 121 130 160 202 304 308 267 210 187 222 27
38 103 124 135 144 150 160 165 173 178 187 77 68 95 151 68 186 147 148 164 162 132 80 208 356 16 81 102 84 137 178 160 192 23 7 94 113 143 98 152 209 220 195 30 208 232 25
39 42 70 149 135 149 160 172 178 178 175 111 64 359 78 118 5 142 135 150 120 92 99 105 241 36 23 78 100 150 192 169 158 153 162 100 35 188 182 213 285 255 321 345 106 284 37
40 43 44 60 101 123 147 169 167 166 128 87 114 26 110 95 16 19 17 85 111 251 146 178 97 328 54 84 123 167 125 211 102 161 168 155 150 179 83 75 276 21 281 201 58 60 23
35 42 47 49 50 69 95 109 165 192 140 99 73 103 64 70 86 65 85 48 45 227 132 29 145 146 164 111 122 120 95 96 144 204 149 177 179 175 177 200 60 33 98 90 62 85 16